Location: Lewisville
(33.0462°N, 96.9942°W)
Time: 07:15:04
(UTC-06:00)

X-37B - Pass Details

Date: 07 December 2021
Orbit: 334 x 337 km, 45.0° (Epoch: 11 January)

Event Time Altitude Azimuth Distance (km) Brightness Sun altitude
Rises 18:49:51 0° 274° (W) 2,097 5.6 -18.2°
Reaches altitude 10° 18:52:20 10° 298° (WNW) 1,262 3.8 -18.7°
Enters shadow 18:54:12 16° 339° (NNW) 980 2.7 -19.0°
